This demonstration page uses our WeatherBlox Daily Observations layout. Learn more.

Left ArrowRight Arrow

39.95238, -75.16362

Hourly Observations for May 22, 2018

Temp ( °F °C ) Dew Point ( °F °C ) Humidity (%) Winds ( mph kmh ) Pressure ( in mb ) Visibility ( mi km ) Precip ( " mm )
12:54 am 00:54 Partly Cloudy 62 16.7 53 11.7 73 73 SSW 5 7 30.17 1022 10 16 0.00 0.00
1:54 am 01:54 Mostly Cloudy 62 16.7 53 11.7 73 73 SSW 5 7 30.16 1021 10 16 0.00 0.00
2:54 am 02:54 Cloudy 61 16.1 54 12.2 78 78 Calm 30.15 1021 10 16 0.00 0.00
3:54 am 03:54 Cloudy 60 15.6 56 13.3 86 86 SE 3 6 30.14 1021 10 16 0.00 0.00
4:54 am 04:54 Cloudy 60 15.6 55 12.8 84 84 Calm 30.13 1020 10 16 0.00 0.00
5:54 am 05:54 Cloudy 60 15.6 56 13.3 86 86 ESE 3 6 30.13 1020 10 16 0.00 0.00
6:54 am 06:54 Cloudy 61 16.1 57 13.9 87 87 ESE 3 6 30.14 1021 10 16 0.00 0.00
7:54 am 07:54 Cloudy 63 17.2 57 13.9 81 81 SE 3 6 30.15 1021 10 16 0.00 0.00
8:54 am 08:54 Cloudy 63 17.2 56 13.3 78 78 SE 5 7 30.16 1021 10 16 0.00 0.00
9:54 am 09:54 Cloudy 65 18.3 55 12.8 70 70 ESE 7 11 30.14 1021 10 16 0.00 0.00
10:54 am 10:54 Cloudy 66 18.9 55 12.8 68 68 ESE 5 7 30.13 1020 10 16 0.00 0.00
11:54 am 11:54 Cloudy with Light Rain 66 18.9 57 13.9 73 73 SE 5 7 30.12 1020 7 11 0.00 0.03
12:11 pm 12:11 Cloudy with Light Rain 64 17.8 56 13.3 75 75 SE 5 7 30.12 1020 10 16 0.00 0.03
12:36 pm 12:36 Cloudy with Light Rain 64 17.8 55 12.8 73 73 SE 3 6 30.12 1020 8 13 0.01 0.25
12:54 pm 12:54 Cloudy with Light Rain 63 17.2 56 13.3 78 78 NE 3 6 30.10 1019 7 11 0.02 0.51
1:08 pm 13:08 Cloudy with Light Rain 62 16.7 56 13.3 80 80 NE 3 6 30.09 1019 5 8 0.01 0.25
1:34 pm 13:34 Cloudy with Rain 62 16.7 56 13.3 80 80 N 3 6 30.09 1019 4 6 0.04 1.02
1:46 pm 13:46 Cloudy with Rain 62 16.7 57 13.9 84 84 VRB 5 7 30.12 1020 2 3 0.08 2.03
1:54 pm 13:54 Cloudy with Rain 61 16.1 58 14.4 90 90 N 5 7 30.09 1019 2 3 0.11 2.79
1:56 pm 13:56 Cloudy with Heavy Rain 61 16.1 58 14.4 90 90 N 5 7 30.09 1019 2 2 0.01 0.25
2:10 pm 14:10 Cloudy with Rain 61 16.1 58 14.4 90 90 Calm 30.09 1019 2 3 0.15 3.81
2:20 pm 14:20 Cloudy with Light Rain 61 16.1 59 15 93 93 VRB 5 7 30.09 1019 4 6 0.18 4.57
2:32 pm 14:32 Cloudy with Light Rain 61 16.1 59 15 93 93 Calm 30.09 1019 6 10 0.20 5.08
2:40 pm 14:40 Cloudy with Light Rain 61 16.1 59 15 93 93 Calm 30.09 1019 6 10 0.20 5.08
2:47 pm 14:47 Cloudy with Rain 61 16.1 59 15 93 93 Calm 30.06 1018 6 10 0.21 5.33
2:54 pm 14:54 Cloudy with Light Rain 62 16.7 59 15 90 90 Calm 30.06 1018 6 10 0.21 5.33
3:35 pm 15:35 Cloudy 62 16.7 60 15.6 93 93 ENE 5 7 30.03 1017 10 16 0.01 0.25
3:54 pm 15:54 Cloudy 63 17.2 60 15.6 90 90 E 7 11 30.03 1017 10 16 0.01 0.25
4:54 pm 16:54 Cloudy 63 17.2 59 15 87 87 NE 5 7 30.01 1016 10 16 0.00 0.00
5:54 pm 17:54 Cloudy 63 17.2 59 15 87 87 E 5 7 30.01 1016 10 16 0.00 0.00
6:54 pm 18:54 Cloudy 63 17.2 58 14.4 84 84 ENE 5 7 30.01 1016 10 16 0.00 0.00
7:32 pm 19:32 Cloudy 63 17.2 58 14.4 84 84 E 6 9 30.00 1016 10 16 0.00 0.00
7:54 pm 19:54 Cloudy 63 17.2 59 15 87 87 E 5 7 30.00 1016 10 16 0.00 0.00
8:54 pm 20:54 Cloudy 63 17.2 59 15 87 87 E 6 9 29.98 1015 10 16 0.00 0.00
9:54 pm 21:54 Mostly Cloudy 62 16.7 60 15.6 93 93 NE 6 9 29.99 1016 10 16 0.00 0.00
10:32 pm 22:32 Cloudy 62 16.7 60 15.6 93 93 Calm 30.00 1016 10 16 0.00 0.00
10:44 pm 22:44 Cloudy 63 17.2 60 15.6 90 90 ESE 5 7 30.00 1016 10 16 0.00 0.00
10:54 pm 22:54 Cloudy 63 17.2 60 15.6 90 90 NE 5 7 29.98 1015 10 16 0.00 0.00
11:54 pm 23:54 Cloudy 63 17.2 60 15.6 90 90 ESE 5 7 29.96 1014 10 16 0.00 0.00

Powered by AerisWeather